Retour au catalogue

SL-8 DEB

ActifLEO
NORAD 10518·DEBRIS·🇷🇺 Russia

Lancé Dec 13, 1977 depuis Plesetsk Cosmodrome

Loading…

Prochains Passages (prochaines 24 heures)

TLE

FraisSource: Space-Track

Époque: Sep 14, 2026, 14:31 UTC

1 10518U 77116C   26257.60514527 -.00000010  00000-0  71954-4 0  9991
2 10518  65.8304 133.4253 0022329 213.6739 159.7359 13.77334666450186

Suivez SL-8 DEB en temps réel avec AllMySat

Download on the App Store